Location: Kapla
(46.2483°N, 15.0094°E)
Time: 14:50:00
(UTC+00:00)

SAR-Lupe-4 - Pass Details

Date: 03 March 2021
Orbit: 483 x 483 km, 98.2° (Epoch: 13 April)

Event Time Altitude Azimuth Distance (km) Brightness Sun altitude
Rises 18:00:12 0° 13° (NNE) 2,563 7.1 -13.1°
Reaches altitude 10° 18:02:17 10° 13° (NNE) 1,677 6.2 -13.4°
Maximum altitude 18:05:53 86° 287° (WNW) 492 3.5 -14.0°
Drops below altitude 10° 18:09:27 10° 197° (SSW) 1,662 6.4 -14.7°
Sets 18:11:30 0° 196° (SSW) 2,537 7.3 -15.0°
